#timestamp,LO_Frequency,Hit,StdDev 
1642168815.7,286047002.1,N
1642168835.5,286047002.2,N
1642168855.3,286047002.1,N
1642168875.2,286047001.4,N
1642168895.0,286047001.9,N
1642168895.9,286047001.9,N
1642168915.8,286047004.3,Y
1642168935.6,286047002.8,P
1642168955.4,286047002.7,P
1642168975.3,286047002.3,N
1642168995.1,286047002.3,Y
1642169015.8,286046999.0,P
1642169035.7,286046998.5,N
1642169055.5,286046998.1,N
1642169075.4,286046998.8,N
1642169095.2,286046999.0,N
1642169115.0,286046998.8,N
1642169115.9,286046998.8,N
1642169135.8,286046997.0,N
1642169155.6,286046997.0,N
1642169175.5,286047001.2,N
1642169195.3,286047000.5,N
1642169215.1,286047001.0,N
1642169235.9,286046998.7,N
1642169255.7,286047001.2,N
1642169275.5,286046998.6,N
1642169295.4,286047001.1,N
1642169315.2,286047001.2,N
1642169335.1,286046998.3,N
1642169336.0,286046998.3,N
1642169355.8,286046998.9,N
1642169375.6,286046999.1,N
1642169395.5,286046999.5,N
1642169415.3,286046998.8,N
1642169435.1,286046998.3,N
1642169455.9,286047001.2,N
1642169475.7,286047000.4,N
1642169495.6,286047001.0,N
1642169515.4,286047000.0,N
1642169535.2,286047001.2,N
1642169555.1,286047001.2,N
1642169556.0,286047001.2,N
1642169575.8,286046998.5,N
1642169595.7,286046999.3,N
1642169615.5,286046996.6,N
1642169635.3,286046997.0,N
1642169655.2,286046998.8,N
1642169675.0,286046998.7,N
1642169675.9,286046998.7,N
1642169695.7,286046997.0,N
1642169715.6,286046998.9,N
1642169735.4,286046999.1,N
1642169755.3,286046999.4,N
1642169775.1,286046996.9,N
1642169795.8,286046998.9,N
1642169815.7,286046999.1,N
1642169835.5,286046998.4,N
1642169855.4,286046998.6,N
1642169875.2,286046998.6,N
1642169895.0,286046999.3,N
1642169895.9,286046999.3,N
1642169915.8,286046998.2,N
1642169935.6,286046998.1,N
1642169955.5,286046998.7,N
1642169975.3,286047001.2,N
1642169995.1,286046998.5,N
1642170015.9,286046998.4,N
1642170035.7,286047000.0,N
1642170055.5,286047000.7,N
1642170075.4,286046998.4,N
1642170095.2,286047001.0,N
1642170115.1,286047001.0,N
1642170116.0,286047001.0,N
1642170135.8,286047000.7,N
1642170155.6,286047001.2,N
1642170175.5,286046998.4,N
1642170195.3,286046998.6,N
1642170215.2,286047001.2,N
1642170235.9,286046999.8,N
1642170255.7,286047000.5,N
1642170275.6,286047001.2,N
1642170295.4,286047001.0,N
1642170315.2,286047000.9,N
1642170335.1,286046998.8,N
1642170336.0,286046998.8,N
1642170355.8,286046998.5,N
1642170375.7,286047000.5,N
1642170395.5,286047000.5,N
1642170415.3,286047002.3,N
1642170435.2,286047002.2,N
1642170455.0,286047001.6,N
1642170455.9,286047001.6,N
1642170475.8,286047002.3,N
1642170495.6,286047002.3,N
1642170515.4,286047000.1,N
1642170535.3,286047002.3,N
1642170555.1,286047001.6,N
1642170575.8,286047001.4,N
1642170595.7,286047002.2,N
1642170615.5,286047002.1,N
1642170635.4,286047001.6,N
1642170655.2,286047001.8,N
1642170675.0,286047001.5,N
1642170676.0,286047001.5,N
1642170695.8,286047002.8,N
1642170715.6,286047000.1,N
1642170735.5,286047002.3,N
1642170755.3,286047001.8,N
1642170775.2,286047002.6,N
1642170795.9,286047002.1,N
1642170815.7,286047001.6,N
1642170835.6,286047002.8,N
1642170855.4,286047002.6,N
1642170875.2,286047002.5,N
1642170895.1,286047002.6,N
1642170896.0,286047002.6,N
1642170915.8,286047001.6,N
1642170935.7,286047000.0,N
1642170955.5,286047002.6,Y
1642170975.3,286047001.2,P
1642170995.2,286046999.0,P
1642171015.0,286047000.8,N
1642171015.9,286047000.8,N
1642171035.8,286047000.9,N
1642171055.6,286047000.2,N
1642171075.4,286047000.0,N
1642171095.3,286047000.1,N
1642171115.1,286047001.1,N
1642171135.9,286047000.9,N
1642171155.7,286047000.4,N
1642171175.5,286046998.5,N
1642171195.4,286047000.6,N
1642171215.2,286047001.1,N
1642171235.0,286046999.9,N
1642171235.9,286046999.9,N
1642171255.8,286047000.9,N
1642171275.6,286047000.8,N
1642171295.5,286047001.0,N
1642171315.3,286047000.8,N
1642171335.1,286047000.6,N
1642171355.9,286047000.0,N
1642171375.7,286047002.1,N
1642171395.6,286047000.0,N
1642171415.4,286047000.1,N
1642171435.2,286047001.6,N
1642171455.1,286047002.1,N
1642171456.0,286047002.1,N
1642171475.8,286047001.8,N
1642171495.6,286047002.4,N
1642171515.5,286046999.8,N
1642171535.3,286047000.4,N
1642171555.2,286047000.1,N
1642171575.9,286047002.5,N
1642171595.7,286047001.4,N
1642171615.6,286047000.0,N
1642171635.4,286046998.5,N
1642171655.3,286046998.3,N
1642171675.1,286046998.4,N
1642171676.0,286046998.4,N
1642171695.8,286046998.1,N
1642171715.7,286046998.8,N
1642171735.5,286047000.2,N
1642171755.3,286047001.2,N
1642171775.2,286047000.2,N
1642171795.0,286047000.0,N
1642171795.9,286047000.0,N
1642171815.8,286046999.8,N
1642171835.6,286047001.7,N
1642171855.4,286047002.6,N
1642171875.3,286047000.7,N
1642171895.1,286047001.2,N
1642171915.9,286046999.9,N
1642171935.7,286046998.5,N
1642171955.5,286047000.9,N
1642171975.4,286046999.8,N
1642171995.4,286047000.2,N
1642172015.3,286047002.6,N
1642172035.1,286047002.7,N
1642172055.8,286047001.0,N
1642172075.7,286047000.4,N
1642172095.5,286047000.6,N
1642172115.4,286047000.0,N
1642172135.2,286047000.0,N
1642172155.0,286046998.5,N
1642172155.9,286046998.5,N
1642172175.8,286046997.0,N
1642172195.6,286046998.4,N
1642172215.5,286046999.9,N
1642172235.3,286047002.0,N
1642172255.1,286046999.7,N
1642172275.9,286047002.4,N
1642172295.7,286046998.2,N
1642172315.5,286046998.1,N
1642172335.4,286047000.9,N
1642172355.2,286047000.1,N
1642172375.1,286047000.6,N
1642172376.0,286047000.6,N
1642172395.8,286046998.1,N
